When you browse on this site, cookies collect data to enhance your experience and personalize the content and advertising you see.
Visit our Privacy Policy to learn more. By continuing to use the site, you agree to this use of cookies and data.
  • Em Portugal
  • Lista de países
  • Para 7 dias
  • Temperatura da água
  • Mapa do tempo
  • Widgets de tempo
  • user-avatar
    Iniciar Sessão

    Previsão horária em Monzino

    Hoje, 3 Junho, Quarta-feira

    Tempo Temperatura Precipitação Vento Pressão Humidade
    00:00 +7°C° 0 mm 1 m/s 747 mmHg 80%
    01:00 +7°C° 0 mm 1 m/s 747 mmHg 83%
    02:00 +7°C° 0 mm 1 m/s 747 mmHg 84%
    03:00 +6°C° 0 mm 1 m/s 747 mmHg 84%
    04:00 +6°C° 0 mm 1 m/s 747 mmHg 85%
    05:00 +8°C° 0 mm 1 m/s 747 mmHg 76%
    06:00 +10°C° 0 mm 1 m/s 747 mmHg 67%
    07:00 +12°C° 0 mm 2 m/s 747 mmHg 58%
    08:00 +13°C° 0 mm 2 m/s 747 mmHg 53%
    09:00 +15°C° 0 mm 2 m/s 747 mmHg 47%
    10:00 +16°C° 0 mm 2 m/s 747 mmHg 42%
    11:00 +16°C° 0 mm 2 m/s 746 mmHg 41%
    12:00 +17°C° 0 mm 2 m/s 746 mmHg 40%
    13:00 +17°C° 0 mm 2 m/s 746 mmHg 38%
    14:00 +17°C° 0 mm 2 m/s 746 mmHg 38%
    15:00 +18°C° 0 mm 2 m/s 746 mmHg 38%
    16:00 +18°C° 0 mm 2 m/s 746 mmHg 38%
    17:00 +17°C° 0 mm 2 m/s 746 mmHg 44%
    18:00 +16°C° 0 mm 1 m/s 746 mmHg 51%
    19:00 +15°C° 0 mm 1 m/s 746 mmHg 58%
    20:00 +13°C° 0 mm 1 m/s 746 mmHg 62%
    21:00 +11°C° 0 mm 1 m/s 747 mmHg 67%
    22:00 +9°C° 0 mm 1 m/s 747 mmHg 72%
    23:00 +7°C° 0 mm 0 m/s 747 mmHg 74%

    Amanhã, 4 Junho, Quinta-feira

    Tempo Temperatura Precipitação Vento Pressão Humidade
    00:00 +6°C° 0 mm 0 m/s 748 mmHg 76%
    01:00 +6°C° 0 mm 0 m/s 748 mmHg 78%
    02:00 +5°C° 0 mm 0 m/s 748 mmHg 78%
    03:00 +6°C° 0 mm 1 m/s 748 mmHg 78%
    04:00 +6°C° 0 mm 1 m/s 749 mmHg 77%
    05:00 +8°C° 0 mm 1 m/s 749 mmHg 71%
    06:00 +10°C° 0 mm 1 m/s 749 mmHg 65%
    07:00 +12°C° 0 mm 2 m/s 749 mmHg 58%
    08:00 +14°C° 0 mm 2 m/s 749 mmHg 53%
    09:00 +15°C° 0 mm 2 m/s 749 mmHg 47%
    10:00 +17°C° 0 mm 2 m/s 749 mmHg 41%
    11:00 +17°C° 0 mm 2 m/s 749 mmHg 39%
    12:00 +18°C° 0 mm 2 m/s 749 mmHg 37%
    13:00 +19°C° 0 mm 2 m/s 749 mmHg 35%
    14:00 +19°C° 0 mm 2 m/s 749 mmHg 35%
    15:00 +19°C° 0 mm 2 m/s 749 mmHg 35%
    16:00 +19°C° 0 mm 2 m/s 749 mmHg 35%
    17:00 +18°C° 0 mm 2 m/s 749 mmHg 42%
    18:00 +17°C° 0 mm 2 m/s 748 mmHg 50%
    19:00 +16°C° 0 mm 1 m/s 748 mmHg 57%
    20:00 +14°C° 0 mm 1 m/s 749 mmHg 62%
    21:00 +12°C° 0 mm 1 m/s 749 mmHg 67%
    22:00 +10°C° 0 mm 1 m/s 750 mmHg 72%
    23:00 +9°C° 0 mm 1 m/s 750 mmHg 73%

    Depois de amanhã, 5 Junho, Sexta-feira

    Tempo Temperatura Precipitação Vento Pressão Humidade
    00:00 +9°C° 0 mm 1 m/s 750 mmHg 74%
    01:00 +8°C° 0 mm 1 m/s 750 mmHg 75%
    02:00 +8°C° 0 mm 1 m/s 750 mmHg 76%
    03:00 +8°C° 0 mm 1 m/s 751 mmHg 78%
    04:00 +7°C° 0 mm 0 m/s 751 mmHg 80%
    05:00 +9°C° 0 mm 0 m/s 751 mmHg 72%
    06:00 +12°C° 0 mm 0 m/s 751 mmHg 65%
    07:00 +15°C° 0 mm 0 m/s 751 mmHg 57%
    08:00 +16°C° 0 mm 0 m/s 751 mmHg 51%
    09:00 +19°C° 0 mm 1 m/s 751 mmHg 45%
    10:00 +19°C° 0 mm 2 m/s 751 mmHg 38%
    11:00 +20°C° 0 mm 2 m/s 751 mmHg 37%
    12:00 +20°C° 0 mm 2 m/s 751 mmHg 36%
    13:00 +21°C° 0 mm 2 m/s 751 mmHg 34%
    14:00 +21°C° 0 mm 2 m/s 751 mmHg 35%
    15:00 +21°C° 0 mm 2 m/s 750 mmHg 36%
    16:00 +21°C° 0 mm 2 m/s 750 mmHg 37%
    17:00 +20°C° 0 mm 2 m/s 750 mmHg 44%
    18:00 +20°C° 0 mm 1 m/s 750 mmHg 50%
    19:00 +19°C° 0 mm 1 m/s 750 mmHg 57%
    20:00 +16°C° 0 mm 1 m/s 751 mmHg 62%
    21:00 +14°C° 0 mm 1 m/s 751 mmHg 66%
    22:00 +12°C° 0 mm 1 m/s 751 mmHg 70%
    23:00 +11°C° 0 mm 1 m/s 751 mmHg 72%

    6 Junho, Sábado

    Tempo Temperatura Precipitação Vento Pressão Humidade
    00:00 +11°C° 0 mm 1 m/s 751 mmHg 74%
    01:00 +10°C° 0 mm 1 m/s 752 mmHg 76%
    02:00 +10°C° 0 mm 1 m/s 752 mmHg 78%
    03:00 +10°C° 0 mm 1 m/s 752 mmHg 79%
    04:00 +10°C° 0 mm 1 m/s 752 mmHg 81%
    05:00 +12°C° 0 mm 1 m/s 752 mmHg 73%
    06:00 +14°C° 0 mm 1 m/s 752 mmHg 65%
    07:00 +18°C° 0 mm 1 m/s 752 mmHg 57%
    08:00 +19°C° 0 mm 1 m/s 752 mmHg 51%
    09:00 +20°C° 0 mm 2 m/s 752 mmHg 45%
    10:00 +21°C° 0 mm 2 m/s 752 mmHg 39%
    11:00 +23°C° 0 mm 2 m/s 752 mmHg 37%
    12:00 +23°C° 0 mm 2 m/s 752 mmHg 35%
    13:00 +24°C° 0 mm 2 m/s 752 mmHg 33%
    14:00 +24°C° 0 mm 2 m/s 751 mmHg 33%
    15:00 +24°C° 0 mm 2 m/s 751 mmHg 33%
    16:00 +25°C° 0 mm 1 m/s 751 mmHg 34%
    17:00 +24°C° 0 mm 1 m/s 751 mmHg 41%
    18:00 +22°C° 0 mm 1 m/s 751 mmHg 49%
    19:00 +21°C° 0 mm 1 m/s 751 mmHg 56%
    20:00 +19°C° 0 mm 1 m/s 751 mmHg 61%
    21:00 +16°C° 0 mm 2 m/s 751 mmHg 66%
    22:00 +14°C° 0 mm 2 m/s 751 mmHg 71%
    23:00 +13°C° 0 mm 2 m/s 751 mmHg 74%

    7 Junho, Domingo

    Tempo Temperatura Precipitação Vento Pressão Humidade
    00:00 +13°C° 0 mm 1 m/s 752 mmHg 76%
    01:00 +12°C° 0 mm 1 m/s 752 mmHg 78%
    02:00 +12°C° 0 mm 1 m/s 752 mmHg 80%
    03:00 +12°C° 0 mm 1 m/s 752 mmHg 82%
    04:00 +12°C° 0 mm 1 m/s 752 mmHg 83%
    05:00 +14°C° 0 mm 1 m/s 752 mmHg 75%
    06:00 +18°C° 0 mm 1 m/s 752 mmHg 67%
    07:00 +18°C° 0 mm 0 m/s 753 mmHg 59%
    08:00 +20°C° 0 mm 0 m/s 752 mmHg 53%
    09:00 +24°C° 0 mm 1 m/s 752 mmHg 48%
    10:00 +26°C° 0 mm 1 m/s 752 mmHg 42%
    11:00 +26°C° 0 mm 1 m/s 752 mmHg 40%
    12:00 +26°C° 0 mm 1 m/s 752 mmHg 37%
    13:00 +26°C° 0 mm 2 m/s 752 mmHg 34%
    14:00 +26°C° 0 mm 2 m/s 752 mmHg 35%
    15:00 +26°C° 0 mm 2 m/s 751 mmHg 35%
    16:00 +26°C° 0 mm 2 m/s 751 mmHg 36%
    17:00 +25°C° 0 mm 2 m/s 751 mmHg 43%
    18:00 +24°C° 0 mm 2 m/s 751 mmHg 51%
    19:00 +23°C° 0 mm 2 m/s 751 mmHg 58%
    20:00 +20°C° 0 mm 2 m/s 751 mmHg 64%
    21:00 +17°C° 0 mm 2 m/s 751 mmHg 70%
    22:00 +15°C° 0 mm 1 m/s 751 mmHg 75%
    23:00 +15°C° 0 mm 2 m/s 751 mmHg 76%

    8 Junho, Segunda-feira

    Tempo Temperatura Precipitação Vento Pressão Humidade
    00:00 +14°C° 0 mm 2 m/s 752 mmHg 77%
    01:00 +13°C° 0 mm 2 m/s 752 mmHg 78%
    02:00 +13°C° 0 mm 2 m/s 752 mmHg 79%
    03:00 +13°C° 0 mm 2 m/s 752 mmHg 80%
    04:00 +13°C° 0 mm 2 m/s 752 mmHg 82%
    05:00 +15°C° 0 mm 2 m/s 752 mmHg 75%
    06:00 +17°C° 0 mm 3 m/s 752 mmHg 69%
    07:00 +19°C° 0 mm 3 m/s 752 mmHg 62%
    08:00 +20°C° 0 mm 3 m/s 752 mmHg 58%
    09:00 +22°C° 0 mm 4 m/s 752 mmHg 54%
    10:00 +25°C° 0 mm 4 m/s 752 mmHg 49%
    11:00 +26°C° 0 mm 4 m/s 751 mmHg 48%
    12:00 +26°C° 0 mm 4 m/s 751 mmHg 46%
    13:00 +27°C° 0 mm 4 m/s 751 mmHg 44%
    14:00 +27°C° 0 mm 4 m/s 751 mmHg 45%
    15:00 +27°C° 0 mm 4 m/s 751 mmHg 46%
    16:00 +28°C° 0 mm 4 m/s 750 mmHg 47%
    17:00 +26°C° 0 mm 4 m/s 750 mmHg 54%
    18:00 +25°C° 0 mm 3 m/s 750 mmHg 61%
    19:00 +24°C° 0 mm 2 m/s 750 mmHg 68%
    20:00 +23°C° 0 mm 2 m/s 750 mmHg 72%
    21:00 +20°C° 0 mm 2 m/s 750 mmHg 77%
    22:00 +18°C° 0 mm 3 m/s 750 mmHg 82%
    23:00 +18°C° 0 mm 2 m/s 750 mmHg 83%
    Mostrar mais